sat.trackr.live / text

‹ back to catalog

STARLINK-4576

NORAD 53566 · 2022-101AR

PAYLOAD ACTIVE UNKNOWN

§ Identity

Operator
Country
US
Launch date
2022-08-19
Launch site
AFETR
Launch vehicle
Mass (kg)
RCS (m²)

Purposes: comms

External: N2YO · Heavens-Above · Gunter

§ Orbital elements

Epoch: 2026-09-19T15:57:22.844736Z

Period
93.85 min
Inclination
53.1578°
Eccentricity
0.0001261
Mean motion
15.34384075 rev/d
Perigee alt
461.9 km
Apogee alt
463.6 km
Semi-major
6,840.9 km
B*
2.2749e-5
RAAN
247.6117°
Arg perigee
87.9619°
Mean anomaly
272.1528°
Rev number
22,663

§ Raw data

STARLINK-45761 53566U 22101AR  26262.66484774  .00000392  00000+0  22749-4 0  99962 53566  53.1578 247.6117 0001261  87.9619 272.1528 15.34384075226630

JSON: /api/v1/satellites/53566 · /tle

For live sub-satellite position, see the globe view (requires WebGL).

§ Visibility from observer

Set your observer location to see the next 7 days of passes ≥ 10°. The values pass through the URL so the page stays shareable.

No JS? Fill the form by hand. The geolocation button needs JavaScript.